Weather in Tyrma

Russia / Khabarovsk Krai     50°02′36″N   132°10′15″E
temp.,
°C
wind,
m/s
gust,
m/s
humid.,
%
clouds,
%
prec.,
mm/h
press.,
hPa
HPBL,
m
16 may, sun
sun1601:00+9w6148237 0.6 9981352
04:00+9w6168084 0.8 9981469
07:00+8w514786 0.1 9991425
10:00+12wnw6125896 0.1 9991821
13:00+13wnw5115695 0.2 10001870
16:00+16nw5114497 0.2 9992325
19:00+15nw375047 0.0 10001541
22:00+8se11770 0.0 100110
17 may, mon
mon1701:00+6sse11850 0.0 100210
04:00+4e11872 0.0 100110
07:00+7e11730 0.0 100072
10:00+16sw36380 0.0 998860
13:00+21w610325 0.0 9972611
16:00+21w692955 0.0 9973095
19:00+18wnw484015 0.0 9981802
22:00+10nnw12635 0.0 100111
18 may, tue
tue1801:00+7e116985 0.0 100110
04:00+6e227580 0.0 99918
07:00+8n2362100 0.0 99899
10:00+17sw2843100 0.0 995681
13:00+22wsw61032100 0.0 9941875
16:00+21w61442100 0.0 9952216
19:00+17wnw594785 0.0 9971246
22:00+10nw286437 0.0 1002378
19 may, wed
wed1901:00+7nw1178100 0.0 100410
04:00+5wnw118575 0.0 100610
07:00+7wsw13690 0.0 1007135
10:00+13wnw48315 0.0 10081928
13:00+16w5922100 0.0 10083266
16:00+18w51021100 0.0 10063356
19:00+17w373216 0.0 10072496
22:00+9ene1154100 0.0 100910
20 may, thu
thu2001:00+8ene225913 0.0 100815
04:00+6e2264100 0.0 100623
07:00+9e1559100 0.0 1005190
10:00+17sse36596 0.1 1001755
13:00+17wsw496994 0.7 1001744
16:00+18wsw3107453 2.2 1001952
19:00+17w246686 0.3 1002115
22:00+11nnw22810 0.3 100635